Time,TemperatureF,DewpointF,PressureIn,WindDirection,WindDirectionDegrees,WindSpeedMPH,WindSpeedGustMPH,Humidity,HourlyPrecipIn,Conditions,Clouds,dailyrainin,SoftwareType,DateUTC
2013-01-03 00:00:00,16.2,10.8,30.05,West,270,0.0,0.0,79,0.00,CLR,CLR,0.00,WeatherDisplay:10.37,2013-01-03 05:00:00,
2013-01-03 00:03:00,16.2,10.8,30.04,West,270,0.3,0.3,79,0.00,CLR,,0.00,WeatherDisplay:10.37,2013-01-03 05:03:00,
2013-01-03 00:08:00,15.8,10.4,30.05,South,180,0.6,1.1,79,0.00,CLR,,0.00,WeatherDisplay:10.37,2013-01-03 05:08:00,
2013-01-03 00:12:00,15.4,9.8,30.05,South,180,0.6,1.1,78,0.00,CLR,,0.00,WeatherDisplay:10.37,2013-01-03 05:12:00,
2013-01-03 00:17:00,15.1,9.5,30.05,SSE,158,0.6,1.1,78,0.00,CLR,,0.00,WeatherDisplay:10.37,2013-01-03 05:17:00,
2013-01-03 00:22:00,14.7,9.1,30.05,SE,135,0.9,1.1,78,0.00,CLR,,0.00,WeatherDisplay:10.37,2013-01-03 05:22:00,
2013-01-03 00:27:00,14.5,8.9,30.05,SE,135,1.5,1.5,78,0.00,CLR,,0.00,WeatherDisplay:10.37,2013-01-03 05:27:00,
2013-01-03 00:32:00,14.2,8.6,30.04,ESE,112,0.6,1.1,78,0.00,CLR,,0.00,WeatherDisplay:10.37,2013-01-03 05:32:00,
2013-01-03 00:37:00,14.0,8.7,30.04,ESE,112,0.9,1.1,79,0.00,CLR,,0.00,WeatherDisplay:10.37,2013-01-03 05:37:00,
2013-01-03 00:42:00,13.6,8.3,30.04,ESE,112,0.6,1.1,79,0.00,CLR,,0.00,WeatherDisplay:10.37,2013-01-03 05:42:00,
2013-01-03 00:47:00,13.6,8.3,30.04,ESE,112,0.6,1.1,79,0.00,CLR,,0.00,WeatherDisplay:10.37,2013-01-03 05:47:00,
2013-01-03 00:52:00,13.6,8.3,30.04,ESE,112,0.6,1.1,79,0.00,CLR,,0.00,WeatherDisplay:10.37,2013-01-03 05:52:00,
2013-01-03 00:57:00,13.8,8.5,30.04,ESE,112,0.6,1.1,79,0.00,CLR,,0.00,WeatherDisplay:10.37,2013-01-03 05:57:00,
2013-01-03 01:02:00,13.8,8.8,30.03,ESE,112,0.6,1.1,80,0.00,CLR,,0.00,WeatherDisplay:10.37,2013-01-03 06:02:00,
2013-01-03 01:07:00,13.6,8.6,30.03,ESE,112,0.6,1.1,80,0.00,CLR,,0.00,WeatherDisplay:10.37,2013-01-03 06:07:00,
2013-01-03 01:12:00,13.5,8.4,30.03,ESE,112,0.6,1.1,80,0.00,CLR,,0.00,WeatherDisplay:10.37,2013-01-03 06:12:00,
2013-01-03 01:17:00,13.3,8.3,30.03,ESE,112,0.9,1.1,80,0.00,CLR,,0.00,WeatherDisplay:10.37,2013-01-03 06:17:00,
2013-01-03 01:22:00,12.9,7.9,30.02,ESE,112,0.9,1.1,80,0.00,CLR,,0.00,WeatherDisplay:10.37,2013-01-03 06:22:00,
2013-01-03 01:27:00,12.7,7.7,30.02,ESE,112,0.6,1.1,80,0.00,CLR,,0.00,WeatherDisplay:10.37,2013-01-03 06:27:00,
2013-01-03 01:32:00,12.6,7.8,30.02,ESE,112,0.9,1.1,81,0.00,CLR,,0.00,WeatherDisplay:10.37,2013-01-03 06:32:00,
2013-01-03 01:37:00,12.6,7.8,30.02,ESE,112,1.2,1.2,81,0.00,CLR,,0.00,WeatherDisplay:10.37,2013-01-03 06:37:00,
2013-01-03 01:42:00,12.6,7.8,30.03,ESE,112,0.9,1.1,81,0.00,CLR,,0.00,WeatherDisplay:10.37,2013-01-03 06:42:00,
2013-01-03 01:47:00,12.2,7.5,30.03,ESE,112,0.6,1.1,81,0.00,CLR,,0.00,WeatherDisplay:10.37,2013-01-03 06:47:00,
2013-01-03 01:52:00,12.0,7.3,30.03,ESE,112,0.6,1.1,81,0.00,CLR,,0.00,WeatherDisplay:10.37,2013-01-03 06:52:00,
2013-01-03 01:57:00,12.2,7.5,30.03,ESE,112,0.6,1.1,81,0.00,CLR,,0.00,WeatherDisplay:10.37,2013-01-03 06:57:00,
2013-01-03 02:02:00,12.2,7.5,30.03,ESE,112,0.6,1.1,81,0.00,CLR,,0.00,WeatherDisplay:10.37,2013-01-03 07:02:00,
2013-01-03 02:07:00,12.2,7.5,30.03,ESE,112,0.9,1.1,81,0.00,CLR,,0.00,WeatherDisplay:10.37,2013-01-03 07:07:00,
2013-01-03 02:12:00,12.0,7.3,30.03,ESE,112,0.9,1.1,81,0.00,CLR,,0.00,WeatherDisplay:10.37,2013-01-03 07:12:00,
2013-01-03 02:17:00,11.8,7.1,30.03,ESE,112,0.6,1.1,81,0.00,CLR,,0.00,WeatherDisplay:10.37,2013-01-03 07:17:00,
2013-01-03 02:22:00,11.8,7.1,30.03,ESE,112,0.9,1.1,81,0.00,CLR,,0.00,WeatherDisplay:10.37,2013-01-03 07:22:00,
2013-01-03 02:27:00,11.8,7.1,30.03,ESE,112,0.6,1.1,81,0.00,CLR,,0.00,WeatherDisplay:10.37,2013-01-03 07:27:00,
2013-01-03 02:32:00,11.7,7.0,30.03,ESE,112,0.6,1.1,81,0.00,CLR,,0.00,WeatherDisplay:10.37,2013-01-03 07:32:00,
2013-01-03 02:37:00,11.7,7.2,30.04,ESE,112,0.3,1.1,82,0.00,CLR,,0.00,WeatherDisplay:10.37,2013-01-03 07:37:00,
2013-01-03 02:42:00,11.5,7.1,30.04,ESE,112,1.5,1.5,82,0.00,CLR,,0.00,WeatherDisplay:10.37,2013-01-03 07:42:00,
2013-01-03 02:47:00,11.1,6.7,30.03,ESE,112,1.5,1.5,82,0.00,CLR,,0.00,WeatherDisplay:10.37,2013-01-03 07:47:00,
2013-01-03 02:52:00,10.9,6.3,30.03,ESE,112,1.2,1.2,81,0.00,CLR,,0.00,WeatherDisplay:10.37,2013-01-03 07:52:00,
2013-01-03 02:57:00,10.8,6.1,30.03,ESE,112,0.6,1.1,81,0.00,CLR,,0.00,WeatherDisplay:10.37,2013-01-03 07:57:00,
2013-01-03 03:02:00,10.8,6.1,30.03,ESE,112,0.6,1.1,81,0.00,CLR,,0.00,WeatherDisplay:10.37,2013-01-03 08:02:00,
2013-01-03 03:07:00,10.8,6.1,30.03,ESE,112,0.6,1.1,81,0.00,CLR,,0.00,WeatherDisplay:10.37,2013-01-03 08:07:00,
2013-01-03 03:12:00,10.8,6.1,30.03,ESE,112,0.9,1.1,81,0.00,CLR,,0.00,WeatherDisplay:10.37,2013-01-03 08:12:00,
2013-01-03 03:17:00,10.8,6.3,30.03,ESE,112,1.5,1.5,82,0.00,CLR,,0.00,WeatherDisplay:10.37,2013-01-03 08:17:00,
2013-01-03 03:22:00,10.6,6.2,30.03,ESE,112,0.9,1.1,82,0.00,CLR,,0.00,WeatherDisplay:10.37,2013-01-03 08:22:00,
2013-01-03 03:27:00,10.6,6.2,30.03,ESE,112,0.9,1.1,82,0.00,CLR,,0.00,WeatherDisplay:10.37,2013-01-03 08:27:00,
2013-01-03 03:32:00,10.4,6.0,30.03,ESE,112,0.9,1.1,82,0.00,CLR,,0.00,WeatherDisplay:10.37,2013-01-03 08:32:00,
2013-01-03 03:37:00,10.6,6.2,30.03,ESE,112,0.9,1.1,82,0.00,CLR,,0.00,WeatherDisplay:10.37,2013-01-03 08:37:00,
2013-01-03 03:42:00,10.6,6.2,30.03,ESE,112,0.9,1.1,82,0.00,CLR,,0.00,WeatherDisplay:10.37,2013-01-03 08:42:00,
2013-01-03 03:47:00,10.6,6.2,30.03,ESE,112,0.9,1.1,82,0.00,CLR,,0.00,WeatherDisplay:10.37,2013-01-03 08:47:00,
2013-01-03 03:52:00,10.6,6.2,30.02,SE,135,0.6,1.1,82,0.00,CLR,,0.00,WeatherDisplay:10.37,2013-01-03 08:52:00,
2013-01-03 03:57:00,10.6,6.2,30.02,ESE,112,0.9,1.1,82,0.00,CLR,,0.00,WeatherDisplay:10.37,2013-01-03 08:57:00,
2013-01-03 04:02:00,10.4,6.0,30.02,ESE,112,0.6,1.1,82,0.00,CLR,,0.00,WeatherDisplay:10.37,2013-01-03 09:02:00,
2013-01-03 04:07:00,10.2,5.8,30.02,ESE,112,0.9,1.1,82,0.00,CLR,,0.00,WeatherDisplay:10.37,2013-01-03 09:07:00,
2013-01-03 04:12:00,10.2,5.8,30.02,ESE,112,0.6,1.1,82,0.00,CLR,,0.00,WeatherDisplay:10.37,2013-01-03 09:12:00,
2013-01-03 04:17:00,10.2,6.1,30.02,ESE,112,0.9,1.1,83,0.00,CLR,,0.00,WeatherDisplay:10.37,2013-01-03 09:17:00,
2013-01-03 04:22:00,10.2,5.8,30.02,ESE,112,1.5,2.3,82,0.00,CLR,,0.00,WeatherDisplay:10.37,2013-01-03 09:22:00,
2013-01-03 04:27:00,9.9,5.7,30.02,ESE,112,1.5,1.5,83,0.00,CLR,,0.00,WeatherDisplay:10.37,2013-01-03 09:27:00,
2013-01-03 04:32:00,9.7,5.6,30.02,ESE,112,1.2,1.2,83,0.00,CLR,,0.00,WeatherDisplay:10.37,2013-01-03 09:32:00,
2013-01-03 04:37:00,9.7,5.6,30.02,ESE,112,0.9,1.1,83,0.00,CLR,,0.00,WeatherDisplay:10.37,2013-01-03 09:37:00,
2013-01-03 04:42:00,9.7,5.6,30.02,ESE,112,0.9,1.1,83,0.00,CLR,,0.00,WeatherDisplay:10.37,2013-01-03 09:42:00,
2013-01-03 04:47:00,9.5,5.4,30.02,ESE,112,0.6,1.1,83,0.00,CLR,,0.00,WeatherDisplay:10.37,2013-01-03 09:47:00,
2013-01-03 04:52:00,9.5,5.4,30.02,ESE,112,0.9,1.1,83,0.00,CLR,,0.00,WeatherDisplay:10.37,2013-01-03 09:52:00,
2013-01-03 04:57:00,9.3,5.2,30.02,ESE,112,0.6,1.1,83,0.00,CLR,,0.00,WeatherDisplay:10.37,2013-01-03 09:57:00,
2013-01-03 05:02:00,9.0,4.8,30.02,ESE,112,1.5,1.5,83,0.00,CLR,,0.00,WeatherDisplay:10.37,2013-01-03 10:02:00,
2013-01-03 05:07:00,8.8,4.7,30.02,ESE,112,1.2,2.3,83,0.00,CLR,,0.00,WeatherDisplay:10.37,2013-01-03 10:07:00,
2013-01-03 05:12:00,8.6,4.5,30.03,ESE,112,0.9,1.1,83,0.00,CLR,,0.00,WeatherDisplay:10.37,2013-01-03 10:12:00,
2013-01-03 05:17:00,8.4,4.3,30.03,ESE,112,1.2,1.2,83,0.00,CLR,,0.00,WeatherDisplay:10.37,2013-01-03 10:17:00,
2013-01-03 05:22:00,8.2,4.1,30.03,ESE,112,0.9,1.1,83,0.00,CLR,,0.00,WeatherDisplay:10.37,2013-01-03 10:22:00,
2013-01-03 05:27:00,8.2,4.1,30.02,ESE,112,0.9,1.1,83,0.00,CLR,,0.00,WeatherDisplay:10.37,2013-01-03 10:27:00,
2013-01-03 05:32:00,8.2,4.1,30.03,ESE,112,0.6,1.1,83,0.00,CLR,,0.00,WeatherDisplay:10.37,2013-01-03 10:32:00,
2013-01-03 05:37:00,8.2,4.1,30.03,ESE,112,0.6,0.6,83,0.00,CLR,,0.00,WeatherDisplay:10.37,2013-01-03 10:37:00,
2013-01-03 05:42:00,8.2,4.1,30.02,SE,135,0.6,1.1,83,0.00,CLR,,0.00,WeatherDisplay:10.37,2013-01-03 10:42:00,
2013-01-03 05:47:00,8.4,4.3,30.02,SE,135,0.6,1.1,83,0.00,CLR,,0.00,WeatherDisplay:10.37,2013-01-03 10:47:00,
2013-01-03 05:52:00,8.4,4.3,30.03,ESE,112,0.9,1.1,83,0.00,CLR,,0.00,WeatherDisplay:10.37,2013-01-03 10:52:00,
2013-01-03 05:57:00,8.2,4.1,30.03,ESE,112,0.9,1.1,83,0.00,CLR,,0.00,WeatherDisplay:10.37,2013-01-03 10:57:00,
2013-01-03 06:02:00,7.9,3.8,30.02,ESE,112,0.9,1.1,83,0.00,CLR,,0.00,WeatherDisplay:10.37,2013-01-03 11:02:00,
2013-01-03 06:07:00,7.9,3.8,30.02,ESE,112,1.5,1.5,83,0.00,CLR,,0.00,WeatherDisplay:10.37,2013-01-03 11:07:00,
2013-01-03 06:12:00,7.9,3.8,30.02,ESE,112,1.2,1.2,83,0.00,CLR,,0.00,WeatherDisplay:10.37,2013-01-03 11:12:00,
2013-01-03 06:17:00,7.7,3.6,30.02,ESE,112,1.5,2.3,83,0.00,CLR,,0.00,WeatherDisplay:10.37,2013-01-03 11:17:00,
2013-01-03 06:22:00,7.7,3.9,30.03,ESE,112,1.5,2.3,84,0.00,CLR,,0.00,WeatherDisplay:10.37,2013-01-03 11:22:00,
2013-01-03 06:27:00,7.7,3.9,30.02,ESE,112,1.8,1.8,84,0.00,CLR,,0.00,WeatherDisplay:10.37,2013-01-03 11:27:00,
2013-01-03 06:32:00,7.5,3.7,30.03,ESE,112,1.5,2.3,84,0.00,CLR,,0.00,WeatherDisplay:10.37,2013-01-03 11:32:00,
2013-01-03 06:37:00,7.5,3.7,30.03,ESE,112,1.2,1.2,84,0.00,CLR,,0.00,WeatherDisplay:10.37,2013-01-03 11:37:00,
2013-01-03 06:42:00,7.7,3.6,30.03,ESE,112,0.9,1.1,83,0.00,CLR,,0.00,WeatherDisplay:10.37,2013-01-03 11:42:00,
2013-01-03 06:47:00,7.7,3.6,30.03,ESE,112,1.8,2.3,83,0.00,CLR,,0.00,WeatherDisplay:10.37,2013-01-03 11:47:00,
2013-01-03 06:52:00,7.7,3.6,30.03,ESE,112,1.5,1.5,83,0.00,CLR,,0.00,WeatherDisplay:10.37,2013-01-03 11:52:00,
2013-01-03 06:57:00,7.7,3.6,30.03,ESE,112,1.2,1.2,83,0.00,CLR,,0.00,WeatherDisplay:10.37,2013-01-03 11:57:00,
2013-01-03 07:02:00,7.7,3.6,30.03,ESE,112,1.2,1.2,83,0.00,CLR,,0.00,WeatherDisplay:10.37,2013-01-03 12:02:00,
2013-01-03 07:07:00,7.7,3.6,30.03,ESE,112,1.2,1.2,83,0.00,CLR,,0.00,WeatherDisplay:10.37,2013-01-03 12:07:00,
2013-01-03 07:12:00,7.7,3.6,30.03,ESE,112,0.6,1.1,83,0.00,CLR,,0.00,WeatherDisplay:10.37,2013-01-03 12:12:00,
2013-01-03 07:17:00,7.7,3.6,30.03,ESE,112,0.6,1.1,83,0.00,CLR,,0.00,WeatherDisplay:10.37,2013-01-03 12:17:00,
2013-01-03 07:22:00,7.7,3.6,30.03,ESE,112,0.6,1.1,83,0.00,CLR,,0.00,WeatherDisplay:10.37,2013-01-03 12:22:00,
2013-01-03 07:27:00,7.7,3.6,30.03,ESE,112,0.6,1.1,83,0.00,CLR,,0.00,WeatherDisplay:10.37,2013-01-03 12:27:00,
2013-01-03 07:32:00,7.7,3.9,30.04,ESE,112,0.6,0.6,84,0.00,CLR,,0.00,WeatherDisplay:10.37,2013-01-03 12:32:00,
2013-01-03 07:37:00,7.9,4.1,30.04,ESE,112,0.9,1.1,84,0.00,CLR,,0.00,WeatherDisplay:10.37,2013-01-03 12:37:00,
2013-01-03 07:42:00,8.2,4.4,30.04,SSE,158,0.6,1.1,84,0.00,CLR,,0.00,WeatherDisplay:10.37,2013-01-03 12:42:00,
2013-01-03 07:47:00,8.2,4.4,30.04,SE,135,0.6,1.1,84,0.00,CLR,,0.00,WeatherDisplay:10.37,2013-01-03 12:47:00,
2013-01-03 07:52:00,8.4,4.6,30.05,SE,135,0.3,0.3,84,0.00,CLR,,0.00,WeatherDisplay:10.37,2013-01-03 12:52:00,
2013-01-03 07:58:00,8.4,4.6,30.04,SE,135,0.6,1.1,84,0.00,CLR,,0.00,WeatherDisplay:10.37,2013-01-03 12:58:00,
2013-01-03 08:03:00,8.4,4.6,30.04,SE,135,0.6,1.1,84,0.00,CLR,,0.00,WeatherDisplay:10.37,2013-01-03 13:03:00,
2013-01-03 08:08:00,8.8,5.2,30.04,SE,135,0.0,0.0,85,0.00,CLR,,0.00,WeatherDisplay:10.37,2013-01-03 13:08:00,
2013-01-03 08:13:00,9.0,5.4,30.04,SE,135,0.0,0.0,85,0.00,CLR,,0.00,WeatherDisplay:10.37,2013-01-03 13:13:00,
2013-01-03 08:18:00,9.3,5.7,30.04,SE,135,0.3,1.1,85,0.00,CLR,,0.00,WeatherDisplay:10.37,2013-01-03 13:18:00,
2013-01-03 08:23:00,9.7,6.1,30.04,ESE,112,0.6,1.1,85,0.00,CLR,,0.00,WeatherDisplay:10.37,2013-01-03 13:23:00,
2013-01-03 08:28:00,10.0,6.4,30.04,SE,135,0.9,1.1,85,0.00,CLR,,0.00,WeatherDisplay:10.37,2013-01-03 13:28:00,
2013-01-03 08:33:00,10.4,7.0,30.04,SE,135,0.3,1.1,86,0.00,CLR,,0.00,WeatherDisplay:10.37,2013-01-03 13:33:00,
2013-01-03 08:38:00,10.4,6.8,30.04,SE,135,0.3,1.1,85,0.00,CLR,,0.00,WeatherDisplay:10.37,2013-01-03 13:38:00,
2013-01-03 08:43:00,10.8,7.4,30.05,SE,135,0.9,1.1,86,0.00,CLR,,0.00,WeatherDisplay:10.37,2013-01-03 13:43:00,
2013-01-03 08:48:00,11.1,7.8,30.04,SE,135,1.2,2.3,86,0.00,CLR,,0.00,WeatherDisplay:10.37,2013-01-03 13:48:00,
2013-01-03 08:53:00,11.1,7.8,30.05,SSE,158,1.2,1.2,86,0.00,CLR,,0.00,WeatherDisplay:10.37,2013-01-03 13:53:00,
2013-01-03 08:58:00,11.5,8.1,30.05,SSE,158,0.6,0.6,86,0.00,CLR,,0.00,WeatherDisplay:10.37,2013-01-03 13:58:00,
2013-01-03 09:03:00,12.0,8.6,30.05,SSE,158,0.3,1.1,86,0.00,CLR,,0.00,WeatherDisplay:10.37,2013-01-03 14:03:00,
2013-01-03 09:08:00,12.7,9.3,30.05,SSE,158,0.0,1.1,86,0.00,CLR,,0.00,WeatherDisplay:10.37,2013-01-03 14:08:00,
2013-01-03 09:13:00,14.0,10.6,30.05,WSW,248,1.8,2.3,86,0.00,CLR,,0.00,WeatherDisplay:10.37,2013-01-03 14:13:00,
2013-01-03 09:18:00,15.4,12.3,30.05,WSW,248,2.4,2.4,87,0.00,CLR,,0.00,WeatherDisplay:10.37,2013-01-03 14:18:00,
2013-01-03 09:23:00,16.3,13.1,30.05,WSW,248,2.5,2.5,87,0.00,CLR,,0.00,WeatherDisplay:10.37,2013-01-03 14:23:00,
2013-01-03 09:28:00,17.1,13.9,30.06,WSW,248,2.4,3.5,87,0.00,CLR,,0.00,WeatherDisplay:10.37,2013-01-03 14:28:00,
2013-01-03 09:33:00,17.6,14.4,30.05,WSW,248,3.1,3.1,87,0.00,CLR,,0.00,WeatherDisplay:10.37,2013-01-03 14:33:00,
2013-01-03 09:38:00,18.3,14.6,30.06,NW,315,3.4,3.5,85,0.00,CLR,,0.00,WeatherDisplay:10.37,2013-01-03 14:38:00,
2013-01-03 09:43:00,18.7,14.6,30.06,West,270,1.5,2.3,84,0.00,CLR,,0.00,WeatherDisplay:10.37,2013-01-03 14:43:00,
2013-01-03 09:48:00,19.0,15.0,30.06,WSW,248,4.0,4.0,84,0.00,CLR,,0.00,WeatherDisplay:10.37,2013-01-03 14:48:00,
2013-01-03 09:53:00,19.8,15.4,30.06,West,270,5.5,5.5,83,0.00,CLR,,0.00,WeatherDisplay:10.37,2013-01-03 14:53:00,
2013-01-03 09:58:00,20.3,16.0,30.06,WSW,248,5.2,5.8,83,0.00,CLR,,0.00,WeatherDisplay:10.37,2013-01-03 14:58:00,
2013-01-03 10:03:00,20.5,15.9,30.06,WSW,248,2.4,2.4,82,0.00,CLR,,0.00,WeatherDisplay:10.37,2013-01-03 15:03:00,
2013-01-03 10:08:00,20.8,16.2,30.06,WSW,248,5.2,9.2,82,0.00,CLR,,0.00,WeatherDisplay:10.37,2013-01-03 15:08:00,
2013-01-03 10:13:00,21.0,16.4,30.06,WSW,248,5.2,5.2,82,0.00,CLR,,0.00,WeatherDisplay:10.37,2013-01-03 15:13:00,
2013-01-03 10:18:00,21.2,16.6,30.06,West,270,7.6,7.6,82,0.00,CLR,,0.00,WeatherDisplay:10.37,2013-01-03 15:18:00,
2013-01-03 10:23:00,21.4,16.2,30.06,West,270,2.5,4.6,80,0.00,CLR,,0.00,WeatherDisplay:10.37,2013-01-03 15:23:00,
2013-01-03 10:28:00,21.7,16.5,30.06,NW,315,1.5,3.5,80,0.00,CLR,,0.00,WeatherDisplay:10.37,2013-01-03 15:28:00,
2013-01-03 10:33:00,22.1,16.9,30.06,SSW,202,3.4,8.1,80,0.00,CLR,,0.00,WeatherDisplay:10.37,2013-01-03 15:33:00,
2013-01-03 10:38:00,22.3,16.8,30.06,WSW,248,5.2,6.9,79,0.00,CLR,,0.00,WeatherDisplay:10.37,2013-01-03 15:38:00,
2013-01-03 10:43:00,22.6,16.8,30.05,West,270,5.5,5.8,78,0.00,CLR,,0.00,WeatherDisplay:10.37,2013-01-03 15:43:00,
2013-01-03 10:48:00,22.6,16.8,30.05,WSW,248,5.8,5.8,78,0.00,CLR,,0.00,WeatherDisplay:10.37,2013-01-03 15:48:00,
2013-01-03 10:53:00,22.6,16.5,30.05,WNW,292,1.8,4.6,77,0.00,CLR,,0.00,WeatherDisplay:10.37,2013-01-03 15:53:00,
2013-01-03 10:58:00,22.8,17.0,30.05,WSW,248,3.1,3.1,78,0.00,CLR,,0.00,WeatherDisplay:10.37,2013-01-03 15:58:00,
2013-01-03 11:03:00,23.2,17.0,30.05,NW,315,3.7,5.8,77,0.00,CLR,,0.00,WeatherDisplay:10.37,2013-01-03 16:03:00,
2013-01-03 11:08:00,23.4,17.2,30.04,WSW,248,7.0,7.0,77,0.00,CLR,,0.00,WeatherDisplay:10.37,2013-01-03 16:08:00,
2013-01-03 11:13:00,23.4,17.2,30.05,West,270,6.1,6.9,77,0.00,CLR,,0.00,WeatherDisplay:10.37,2013-01-03 16:13:00,
2013-01-03 11:18:00,23.5,17.4,30.04,SSW,202,3.7,4.6,77,0.00,CLR,,0.00,WeatherDisplay:10.37,2013-01-03 16:18:00,
2013-01-03 11:23:00,23.9,17.4,30.04,WSW,248,7.0,7.0,76,0.00,CLR,,0.00,WeatherDisplay:10.37,2013-01-03 16:23:00,
2013-01-03 11:28:00,23.9,17.4,30.04,West,270,7.6,7.6,76,0.00,CLR,,0.00,WeatherDisplay:10.37,2013-01-03 16:28:00,
2013-01-03 11:33:00,23.7,17.3,30.03,West,270,5.2,8.1,76,0.00,CLR,,0.00,WeatherDisplay:10.37,2013-01-03 16:33:00,
2013-01-03 11:38:00,23.5,17.1,30.02,West,270,2.1,2.3,76,0.00,CLR,,0.00,WeatherDisplay:10.37,2013-01-03 16:38:00,
2013-01-03 11:43:00,23.9,17.4,30.02,West,270,4.6,5.8,76,0.00,CLR,,0.00,WeatherDisplay:10.37,2013-01-03 16:43:00,
2013-01-03 11:48:00,23.9,17.1,30.02,West,270,3.1,6.9,75,0.00,CLR,,0.00,WeatherDisplay:10.37,2013-01-03 16:48:00,
2013-01-03 11:53:00,24.1,17.3,30.02,WNW,292,5.2,9.2,75,0.00,CLR,,0.00,WeatherDisplay:10.37,2013-01-03 16:53:00,
2013-01-03 11:58:00,25.0,18.2,30.02,NW,315,5.8,8.1,75,0.00,CLR,,0.00,WeatherDisplay:10.37,2013-01-03 16:58:00,
2013-01-03 12:03:00,25.5,18.1,30.01,NNE,22,4.6,8.1,73,0.00,CLR,,0.00,WeatherDisplay:10.37,2013-01-03 17:03:00,
2013-01-03 12:08:00,25.9,18.1,30.01,WSW,248,6.1,9.2,72,0.00,CLR,,0.00,WeatherDisplay:10.37,2013-01-03 17:08:00,
2013-01-03 12:13:00,25.9,18.1,30.01,NW,315,6.7,8.1,72,0.00,CLR,,0.00,WeatherDisplay:10.37,2013-01-03 17:13:00,
2013-01-03 12:18:00,26.2,18.4,30.01,NNW,338,4.6,4.6,72,0.00,CLR,,0.00,WeatherDisplay:10.37,2013-01-03 17:18:00,
2013-01-03 12:23:00,26.6,18.8,30.01,WNW,292,5.2,5.8,72,0.00,CLR,,0.00,WeatherDisplay:10.37,2013-01-03 17:23:00,
2013-01-03 12:28:00,26.4,18.6,30.00,WSW,248,1.8,5.8,72,0.00,CLR,,0.00,WeatherDisplay:10.37,2013-01-03 17:28:00,
2013-01-03 12:33:00,26.2,18.4,30.00,WSW,248,4.3,8.1,72,0.00,CLR,,0.00,WeatherDisplay:10.37,2013-01-03 17:33:00,
2013-01-03 12:38:00,26.2,18.4,29.99,NW,315,5.2,6.9,72,0.00,CLR,,0.00,WeatherDisplay:10.37,2013-01-03 17:38:00,
2013-01-03 12:43:00,26.2,18.4,29.99,West,270,4.3,5.8,72,0.00,CLR,,0.00,WeatherDisplay:10.37,2013-01-03 17:43:00,
2013-01-03 12:48:00,26.2,18.4,29.99,WSW,248,3.7,4.6,72,0.00,CLR,,0.00,WeatherDisplay:10.37,2013-01-03 17:48:00,
2013-01-03 12:53:00,26.8,19.0,29.98,WSW,248,2.8,5.8,72,0.00,CLR,,0.00,WeatherDisplay:10.37,2013-01-03 17:53:00,
2013-01-03 12:58:00,27.0,19.1,29.98,WSW,248,6.1,6.9,72,0.00,CLR,,0.00,WeatherDisplay:10.37,2013-01-03 17:58:00,
2013-01-03 13:03:00,26.6,18.8,29.98,WSW,248,4.0,9.2,72,0.00,CLR,,0.00,WeatherDisplay:10.37,2013-01-03 18:03:00,
2013-01-03 13:08:00,27.0,19.1,29.98,WNW,292,6.1,6.1,72,0.00,CLR,,0.00,WeatherDisplay:10.37,2013-01-03 18:08:00,
2013-01-03 13:13:00,27.1,19.3,29.98,West,270,9.6,10.4,72,0.00,CLR,,0.00,WeatherDisplay:10.37,2013-01-03 18:13:00,
2013-01-03 13:18:00,27.0,19.1,29.98,West,270,5.2,9.2,72,0.00,CLR,,0.00,WeatherDisplay:10.37,2013-01-03 18:18:00,
2013-01-03 13:23:00,27.1,19.3,29.98,NW,315,9.0,9.0,72,0.00,CLR,,0.00,WeatherDisplay:10.37,2013-01-03 18:23:00,
2013-01-03 13:28:00,27.0,19.1,29.97,WSW,248,6.4,6.9,72,0.00,CLR,,0.00,WeatherDisplay:10.37,2013-01-03 18:28:00,
2013-01-03 13:33:00,27.1,19.3,29.97,NW,315,8.4,9.2,72,0.00,CLR,,0.00,WeatherDisplay:10.37,2013-01-03 18:33:00,
2013-01-03 13:38:00,27.5,19.7,29.97,West,270,4.0,6.9,72,0.00,CLR,,0.00,WeatherDisplay:10.37,2013-01-03 18:38:00,
2013-01-03 13:43:00,27.9,20.0,29.97,West,270,9.6,9.6,72,0.00,CLR,,0.00,WeatherDisplay:10.37,2013-01-03 18:43:00,
2013-01-03 13:48:00,28.0,19.8,29.97,West,270,8.1,9.2,71,0.00,CLR,,0.00,WeatherDisplay:10.37,2013-01-03 18:48:00,
2013-01-03 13:53:00,28.4,19.9,29.96,West,270,4.9,9.2,70,0.00,CLR,,0.00,WeatherDisplay:10.37,2013-01-03 18:53:00,
2013-01-03 13:58:00,28.4,19.9,29.96,WNW,292,3.1,6.9,70,0.00,CLR,,0.00,WeatherDisplay:10.37,2013-01-03 18:58:00,
2013-01-03 14:03:00,28.9,20.0,29.96,NW,315,7.3,7.3,69,0.00,CLR,,0.00,WeatherDisplay:10.37,2013-01-03 19:03:00,
2013-01-03 14:08:00,29.5,20.2,29.97,WNW,292,3.1,8.1,68,0.00,CLR,,0.00,WeatherDisplay:10.37,2013-01-03 19:08:00,
2013-01-03 14:13:00,29.8,20.2,29.96,NNW,338,4.6,8.1,67,0.00,CLR,,0.00,WeatherDisplay:10.37,2013-01-03 19:13:00,
2013-01-03 14:18:00,30.6,20.9,29.96,WSW,248,6.1,6.9,67,0.00,CLR,,0.00,WeatherDisplay:10.37,2013-01-03 19:18:00,
2013-01-03 14:51:00,30.6,20.5,29.97,WSW,248,6.1,8.1,66,0.00,CLR,,0.00,WeatherDisplay:10.37,2013-01-03 19:51:00,
2013-01-03 14:57:00,31.3,21.2,29.97,WNW,292,3.4,6.9,66,0.00,CLR,,0.00,WeatherDisplay:10.37,2013-01-03 19:57:00,
2013-01-03 15:03:00,31.5,21.0,29.97,WSW,248,8.1,8.1,65,0.00,CLR,,0.00,WeatherDisplay:10.37,2013-01-03 20:03:00,
2013-01-03 15:08:00,30.9,20.5,29.97,WNW,292,8.1,8.1,65,0.00,CLR,,0.00,WeatherDisplay:10.37,2013-01-03 20:08:00,
2013-01-03 15:13:00,30.9,20.5,29.97,WNW,292,6.4,11.5,65,0.00,CLR,,0.00,WeatherDisplay:10.37,2013-01-03 20:13:00,
2013-01-03 15:18:00,30.6,20.2,29.97,WNW,292,4.0,11.5,65,0.00,CLR,,0.00,WeatherDisplay:10.37,2013-01-03 20:18:00,
2013-01-03 15:23:00,30.4,20.4,29.98,NW,315,2.4,6.9,66,0.00,CLR,,0.00,WeatherDisplay:10.37,2013-01-03 20:23:00,
2013-01-03 15:28:00,29.8,19.9,29.98,West,270,8.1,10.4,66,0.00,CLR,,0.00,WeatherDisplay:10.37,2013-01-03 20:28:00,
2013-01-03 15:33:00,29.8,19.9,29.98,NNW,338,4.3,5.8,66,0.00,CLR,,0.00,WeatherDisplay:10.37,2013-01-03 20:33:00,
2013-01-03 15:38:00,30.2,20.2,29.98,WNW,292,5.2,6.9,66,0.00,CLR,,0.00,WeatherDisplay:10.37,2013-01-03 20:38:00,
2013-01-03 15:43:00,30.6,20.5,29.98,WSW,248,3.4,8.1,66,0.00,CLR,,0.00,WeatherDisplay:10.37,2013-01-03 20:43:00,
2013-01-03 15:48:00,30.7,20.4,29.98,WSW,248,8.1,8.1,65,0.00,CLR,,0.00,WeatherDisplay:10.37,2013-01-03 20:48:00,
2013-01-03 15:53:00,30.2,20.2,29.98,WSW,248,5.2,8.1,66,0.00,CLR,,0.00,WeatherDisplay:10.37,2013-01-03 20:53:00,
2013-01-03 15:58:00,30.2,20.2,29.98,West,270,7.3,7.3,66,0.00,CLR,,0.00,WeatherDisplay:10.37,2013-01-03 20:58:00,
2013-01-03 16:03:00,30.2,19.8,29.98,WSW,248,15.1,15.1,65,0.00,CLR,,0.00,WeatherDisplay:10.37,2013-01-03 21:03:00,
2013-01-03 16:08:00,29.8,19.9,29.98,WSW,248,9.9,9.9,66,0.00,CLR,,0.00,WeatherDisplay:10.37,2013-01-03 21:08:00,
2013-01-03 16:13:00,29.8,19.9,29.98,NW,315,6.7,9.2,66,0.00,CLR,,0.00,WeatherDisplay:10.37,2013-01-03 21:13:00,
2013-01-03 16:18:00,29.8,19.9,29.98,NW,315,7.0,10.4,66,0.00,CLR,,0.00,WeatherDisplay:10.37,2013-01-03 21:18:00,
2013-01-03 16:23:00,29.8,19.9,29.98,WSW,248,9.0,13.8,66,0.00,CLR,,0.00,WeatherDisplay:10.37,2013-01-03 21:23:00,
2013-01-03 16:28:00,29.1,19.2,29.98,West,270,5.8,11.5,66,0.00,CLR,,0.00,WeatherDisplay:10.37,2013-01-03 21:28:00,
2013-01-03 16:33:00,28.8,19.2,29.98,NNE,22,4.0,5.8,67,0.00,CLR,,0.00,WeatherDisplay:10.37,2013-01-03 21:33:00,
2013-01-03 16:38:00,28.4,19.2,29.98,West,270,7.0,7.0,68,0.00,CLR,,0.00,WeatherDisplay:10.37,2013-01-03 21:38:00,
2013-01-03 16:43:00,28.0,18.8,29.98,NW,315,3.1,11.5,68,0.00,CLR,,0.00,WeatherDisplay:10.37,2013-01-03 21:43:00,
2013-01-03 16:48:00,27.9,19.0,29.98,WSW,248,4.6,6.9,69,0.00,CLR,,0.00,WeatherDisplay:10.37,2013-01-03 21:48:00,
2013-01-03 16:53:00,27.7,18.8,29.98,West,270,2.5,8.1,69,0.00,CLR,,0.00,WeatherDisplay:10.37,2013-01-03 21:53:00,
2013-01-03 16:58:00,27.7,18.8,29.98,West,270,9.9,10.4,69,0.00,CLR,,0.00,WeatherDisplay:10.37,2013-01-03 21:58:00,
2013-01-03 17:03:00,27.7,18.8,29.98,West,270,5.2,8.1,69,0.00,CLR,,0.00,WeatherDisplay:10.37,2013-01-03 22:03:00,
2013-01-03 17:08:00,27.7,19.2,29.98,NW,315,4.3,8.1,70,0.00,CLR,,0.00,WeatherDisplay:10.37,2013-01-03 22:08:00,
2013-01-03 17:13:00,27.5,19.0,29.98,WSW,248,7.6,7.6,70,0.00,CLR,,0.00,WeatherDisplay:10.37,2013-01-03 22:13:00,
2013-01-03 17:18:00,27.5,19.0,29.98,NW,315,6.1,10.4,70,0.00,CLR,,0.00,WeatherDisplay:10.37,2013-01-03 22:18:00,
2013-01-03 17:23:00,27.3,18.8,29.99,WSW,248,9.9,12.7,70,0.00,CLR,,0.00,WeatherDisplay:10.37,2013-01-03 22:23:00,
2013-01-03 17:28:00,27.3,18.8,29.98,WSW,248,4.6,6.9,70,0.00,CLR,,0.00,WeatherDisplay:10.37,2013-01-03 22:28:00,
2013-01-03 17:33:00,27.3,18.8,29.99,West,270,5.5,9.2,70,0.00,CLR,,0.00,WeatherDisplay:10.37,2013-01-03 22:33:00,
2013-01-03 17:38:00,27.3,18.8,29.98,WSW,248,7.3,9.2,70,0.00,CLR,,0.00,WeatherDisplay:10.37,2013-01-03 22:38:00,
2013-01-03 17:43:00,27.3,18.8,29.99,WNW,292,7.8,11.5,70,0.00,CLR,,0.00,WeatherDisplay:10.37,2013-01-03 22:43:00,
2013-01-03 17:48:00,27.1,18.6,29.99,WSW,248,9.6,9.6,70,0.00,CLR,,0.00,WeatherDisplay:10.37,2013-01-03 22:48:00,
2013-01-03 17:53:00,27.1,18.6,29.99,WSW,248,9.0,9.2,70,0.00,CLR,,0.00,WeatherDisplay:10.37,2013-01-03 22:53:00,
2013-01-03 17:58:00,27.0,18.8,29.99,NW,315,7.0,10.4,71,0.00,CLR,,0.00,WeatherDisplay:10.37,2013-01-03 22:58:00,
2013-01-03 18:03:00,27.0,18.8,29.99,WSW,248,5.8,5.8,71,0.00,CLR,,0.00,WeatherDisplay:10.37,2013-01-03 23:03:00,
2013-01-03 18:08:00,27.0,18.8,29.99,WNW,292,4.3,11.5,71,0.00,CLR,,0.00,WeatherDisplay:10.37,2013-01-03 23:08:00,
2013-01-03 18:13:00,27.0,18.8,29.99,WNW,292,10.8,11.5,71,0.00,CLR,,0.00,WeatherDisplay:10.37,2013-01-03 23:13:00,
2013-01-03 18:18:00,27.0,18.8,30.00,NW,315,8.4,12.7,71,0.00,CLR,,0.00,WeatherDisplay:10.37,2013-01-03 23:18:00,
2013-01-03 18:23:00,27.0,19.1,30.00,WNW,292,7.0,8.1,72,0.00,CLR,,0.00,WeatherDisplay:10.37,2013-01-03 23:23:00,
2013-01-03 18:28:00,27.0,19.1,30.00,NNW,338,4.6,9.2,72,0.00,CLR,,0.00,WeatherDisplay:10.37,2013-01-03 23:28:00,
2013-01-03 18:33:00,27.0,19.1,30.00,West,270,7.8,8.1,72,0.00,CLR,,0.00,WeatherDisplay:10.37,2013-01-03 23:33:00,
2013-01-03 18:38:00,27.1,19.3,30.00,WNW,292,7.6,10.4,72,0.00,CLR,,0.00,WeatherDisplay:10.37,2013-01-03 23:38:00,
2013-01-03 18:43:00,27.1,19.3,30.00,WSW,248,8.1,9.2,72,0.00,CLR,,0.00,WeatherDisplay:10.37,2013-01-03 23:43:00,
2013-01-03 18:48:00,27.1,19.3,30.00,WSW,248,7.3,8.1,72,0.00,CLR,,0.00,WeatherDisplay:10.37,2013-01-03 23:48:00,
2013-01-03 18:53:00,27.1,19.3,30.00,NW,315,4.6,8.1,72,0.00,CLR,,0.00,WeatherDisplay:10.37,2013-01-03 23:53:00,
2013-01-03 18:58:00,27.1,19.3,30.01,SW,225,11.7,11.7,72,0.00,CLR,,0.00,WeatherDisplay:10.37,2013-01-03 23:58:00,
2013-01-03 19:03:00,27.1,19.3,30.01,West,270,12.0,12.7,72,0.00,CLR,,0.00,WeatherDisplay:10.37,2013-01-04 00:03:00,
2013-01-03 19:08:00,27.3,19.5,30.01,WSW,248,3.4,5.8,72,0.00,CLR,,0.00,WeatherDisplay:10.37,2013-01-04 00:08:00,
2013-01-03 19:13:00,27.3,19.5,30.00,NNW,338,18.5,18.5,72,0.00,CLR,,0.00,WeatherDisplay:10.37,2013-01-04 00:13:00,
2013-01-03 19:18:00,27.3,19.5,30.00,NW,315,4.3,10.4,72,0.00,CLR,,0.00,WeatherDisplay:10.37,2013-01-04 00:18:00,
2013-01-03 19:23:00,27.3,19.5,30.01,SW,225,6.1,9.2,72,0.00,CLR,,0.00,WeatherDisplay:10.37,2013-01-04 00:23:00,
2013-01-03 19:28:00,27.3,19.2,30.01,NW,315,7.0,12.7,71,0.00,CLR,,0.00,WeatherDisplay:10.37,2013-01-04 00:28:00,
2013-01-03 19:33:00,27.3,19.2,30.01,West,270,7.3,16.1,71,0.00,CLR,,0.00,WeatherDisplay:10.37,2013-01-04 00:33:00,
2013-01-03 19:38:00,27.3,19.2,30.01,WNW,292,7.3,11.5,71,0.00,CLR,,0.00,WeatherDisplay:10.37,2013-01-04 00:38:00,
2013-01-03 19:43:00,27.3,19.2,30.01,NNW,338,11.7,11.7,71,0.00,CLR,,0.00,WeatherDisplay:10.37,2013-01-04 00:43:00,
2013-01-03 19:48:00,27.5,19.0,30.01,WSW,248,9.9,9.9,70,0.00,CLR,,0.00,WeatherDisplay:10.37,2013-01-04 00:48:00,
2013-01-03 19:53:00,27.5,19.0,30.01,NNW,338,11.7,11.7,70,0.00,CLR,,0.00,WeatherDisplay:10.37,2013-01-04 00:53:00,
2013-01-03 19:58:00,27.5,19.0,30.01,West,270,9.6,12.7,70,0.00,CLR,,0.00,WeatherDisplay:10.37,2013-01-04 00:58:00,
2013-01-03 20:03:00,27.5,19.3,30.01,WSW,248,12.9,12.9,71,0.00,CLR,,0.00,WeatherDisplay:10.37,2013-01-04 01:03:00,
2013-01-03 20:08:00,27.3,19.2,30.01,NW,315,6.1,8.1,71,0.00,CLR,,0.00,WeatherDisplay:10.37,2013-01-04 01:08:00,
2013-01-03 20:13:00,27.3,19.2,30.01,NNW,338,6.7,9.2,71,0.00,CLR,,0.00,WeatherDisplay:10.37,2013-01-04 01:13:00,
2013-01-03 20:18:00,27.3,19.5,30.01,NW,315,5.2,6.9,72,0.00,CLR,,0.00,WeatherDisplay:10.37,2013-01-04 01:18:00,
2013-01-03 20:23:00,27.3,19.5,30.01,West,270,10.5,10.5,72,0.00,CLR,,0.00,WeatherDisplay:10.37,2013-01-04 01:23:00,
2013-01-03 20:28:00,27.3,19.5,30.01,NW,315,1.8,8.1,72,0.00,CLR,,0.00,WeatherDisplay:10.37,2013-01-04 01:28:00,
2013-01-03 20:33:00,27.1,19.3,30.01,West,270,8.1,10.4,72,0.00,CLR,,0.00,WeatherDisplay:10.37,2013-01-04 01:33:00,
2013-01-03 20:38:00,27.1,19.3,30.02,WSW,248,11.4,12.7,72,0.00,CLR,,0.00,WeatherDisplay:10.37,2013-01-04 01:38:00,
2013-01-03 20:43:00,27.1,19.3,30.01,North,0,3.1,8.1,72,0.00,CLR,,0.00,WeatherDisplay:10.37,2013-01-04 01:43:00,
2013-01-03 20:48:00,27.0,19.1,30.02,West,270,4.9,9.2,72,0.00,CLR,,0.00,WeatherDisplay:10.37,2013-01-04 01:48:00,
2013-01-03 20:53:00,27.0,19.1,30.02,NW,315,3.1,3.5,72,0.00,CLR,,0.00,WeatherDisplay:10.37,2013-01-04 01:53:00,
2013-01-03 20:58:00,27.0,19.1,30.02,West,270,12.3,17.3,72,0.00,CLR,,0.00,WeatherDisplay:10.37,2013-01-04 01:58:00,
2013-01-03 21:03:00,27.0,19.1,30.02,WNW,292,6.1,11.5,72,0.00,CLR,,0.00,WeatherDisplay:10.37,2013-01-04 02:03:00,
2013-01-03 21:08:00,26.8,19.0,30.02,NW,315,12.9,16.1,72,0.00,CLR,,0.00,WeatherDisplay:10.37,2013-01-04 02:08:00,
2013-01-03 21:13:00,26.8,19.0,30.02,WSW,248,5.5,12.7,72,0.00,CLR,,0.00,WeatherDisplay:10.37,2013-01-04 02:13:00,
2013-01-03 21:18:00,26.6,18.8,30.02,WSW,248,12.3,17.3,72,0.00,CLR,,0.00,WeatherDisplay:10.37,2013-01-04 02:18:00,
2013-01-03 21:23:00,26.6,18.8,30.02,WSW,248,13.0,13.0,72,0.00,CLR,,0.00,WeatherDisplay:10.37,2013-01-04 02:23:00,
2013-01-03 21:28:00,26.6,19.1,30.02,NW,315,6.4,16.1,73,0.00,CLR,,0.00,WeatherDisplay:10.37,2013-01-04 02:28:00,
2013-01-03 21:33:00,26.4,18.9,30.02,NW,315,16.6,16.6,73,0.00,CLR,,0.00,WeatherDisplay:10.37,2013-01-04 02:33:00,
2013-01-03 21:38:00,26.4,19.3,30.02,WNW,292,7.3,12.7,74,0.00,CLR,,0.00,WeatherDisplay:10.37,2013-01-04 02:38:00,
2013-01-03 21:43:00,26.2,19.1,30.02,NNW,338,6.1,6.9,74,0.00,CLR,,0.00,WeatherDisplay:10.37,2013-01-04 02:43:00,
2013-01-03 21:48:00,26.2,19.1,30.02,WNW,292,9.9,11.5,74,0.00,CLR,,0.00,WeatherDisplay:10.37,2013-01-04 02:48:00,
2013-01-03 21:53:00,26.2,19.4,30.02,NW,315,9.6,9.6,75,0.00,CLR,,0.00,WeatherDisplay:10.37,2013-01-04 02:53:00,
2013-01-03 21:58:00,26.1,19.2,30.02,NW,315,12.9,12.9,75,0.00,CLR,,0.00,WeatherDisplay:10.37,2013-01-04 02:58:00,
2013-01-03 22:03:00,25.9,19.0,30.02,NNW,338,7.0,8.1,75,0.00,CLR,,0.00,WeatherDisplay:10.37,2013-01-04 03:03:00,
2013-01-03 22:08:00,25.9,19.0,30.02,NNW,338,7.0,9.2,75,0.00,CLR,,0.00,WeatherDisplay:10.37,2013-01-04 03:08:00,
2013-01-03 22:13:00,25.7,18.9,30.02,NW,315,4.3,11.5,75,0.00,CLR,,0.00,WeatherDisplay:10.37,2013-01-04 03:13:00,
2013-01-03 22:18:00,25.7,19.2,30.02,NW,315,10.5,10.5,76,0.00,CLR,,0.00,WeatherDisplay:10.37,2013-01-04 03:18:00,
2013-01-03 22:23:00,25.7,19.2,30.02,NNW,338,9.6,9.6,76,0.00,CLR,,0.00,WeatherDisplay:10.37,2013-01-04 03:23:00,
2013-01-03 22:28:00,25.5,18.7,30.02,NW,315,5.8,11.5,75,0.00,CLR,,0.00,WeatherDisplay:10.37,2013-01-04 03:28:00,
2013-01-03 22:33:00,25.5,18.7,30.03,NNW,338,5.8,13.8,75,0.00,CLR,,0.00,WeatherDisplay:10.37,2013-01-04 03:33:00,
2013-01-03 22:38:00,25.5,18.7,30.03,North,0,9.9,15.0,75,0.00,CLR,,0.00,WeatherDisplay:10.37,2013-01-04 03:38:00,
2013-01-03 22:43:00,25.5,18.7,30.03,NNW,338,7.0,9.2,75,0.00,CLR,,0.00,WeatherDisplay:10.37,2013-01-04 03:43:00,
2013-01-03 22:48:00,25.5,18.7,30.03,NW,315,5.8,18.4,75,0.00,CLR,,0.00,WeatherDisplay:10.37,2013-01-04 03:48:00,
2013-01-03 22:53:00,25.3,18.5,30.03,WSW,248,10.2,16.1,75,0.00,CLR,,0.00,WeatherDisplay:10.37,2013-01-04 03:53:00,
2013-01-03 22:58:00,25.3,18.5,30.03,WNW,292,9.0,13.8,75,0.00,CLR,,0.00,WeatherDisplay:10.37,2013-01-04 03:58:00,
2013-01-03 23:03:00,25.2,18.3,30.03,NW,315,11.1,12.7,75,0.00,CLR,,0.00,WeatherDisplay:10.37,2013-01-04 04:03:00,
2013-01-03 23:08:00,25.0,18.2,30.03,WNW,292,12.3,18.4,75,0.00,CLR,,0.00,WeatherDisplay:10.37,2013-01-04 04:08:00,
2013-01-03 23:13:00,25.0,18.2,30.03,WSW,248,12.6,12.7,75,0.00,CLR,,0.00,WeatherDisplay:10.37,2013-01-04 04:13:00,
2013-01-03 23:18:00,24.8,18.0,30.03,West,270,4.9,17.3,75,0.00,CLR,,0.00,WeatherDisplay:10.37,2013-01-04 04:18:00,
2013-01-03 23:23:00,24.8,18.3,30.03,NNW,338,8.1,10.4,76,0.00,CLR,,0.00,WeatherDisplay:10.37,2013-01-04 04:23:00,
2013-01-03 23:28:00,24.8,18.3,30.03,WSW,248,7.6,8.1,76,0.00,CLR,,0.00,WeatherDisplay:10.37,2013-01-04 04:28:00,
2013-01-03 23:33:00,24.8,18.3,30.03,NW,315,5.5,10.4,76,0.00,CLR,,0.00,WeatherDisplay:10.37,2013-01-04 04:33:00,
2013-01-03 23:38:00,24.6,18.1,30.03,West,270,11.4,13.8,76,0.00,CLR,,0.00,WeatherDisplay:10.37,2013-01-04 04:38:00,
2013-01-03 23:44:00,24.4,18.3,30.03,WSW,248,5.2,12.7,77,0.00,CLR,,0.00,WeatherDisplay:10.37,2013-01-04 04:44:00,
2013-01-03 23:49:00,24.4,18.3,30.03,West,270,11.4,13.8,77,0.00,CLR,,0.00,WeatherDisplay:10.37,2013-01-04 04:49:00,
2013-01-03 23:54:00,24.3,18.4,30.03,West,270,12.6,15.0,78,0.00,CLR,,0.00,WeatherDisplay:10.37,2013-01-04 04:54:00,
2013-01-03 23:59:00,24.3,18.4,30.03,WSW,248,8.4,10.4,78,0.00,CLR,,0.00,WeatherDisplay:10.37,2013-01-04 04:59:00,